Kilmarnock, Virginia, United States (22482)
Lat: 37.71N, Lon: 76.38W
Wx Zone: VAZ078
Local Info
Past Weather Observations for Wednesday, November 26, 2014

NOTE: This archive is for the closest National Weather Service station to Kilmarnock. Information may differ from the station used for current weather conditions.

Click here for Long-term Archive

Time Weather Temperature Dewpoint Humidity Pressure Winds Precip Visibility
23:55
Mostly Cloudy
41°F / 5°C 36°F / 2°C 81% 30.04 in
(1017 mb)
Calm - 10SM
23:35
Overcast
41°F / 5°C 36°F / 2°C 81% 30.06 in
(1018 mb)
NW 4.6 mph
(NW 7 kph)
- 10SM
23:15
Overcast
41°F / 5°C 37°F / 3°C 87% 30.06 in
(1018 mb)
NW 3.5 mph
(NW 6 kph)
- 10SM
22:55
Overcast
41°F / 5°C 37°F / 3°C 87% 30.06 in
(1018 mb)
W 8.1 mph
(W 13 kph)
- 10SM
22:35
Overcast
41°F / 5°C 37°F / 3°C 87% 30.06 in
(1018 mb)
W 6.9 mph
(W 11 kph)
- 10SM
22:15
Overcast
41°F / 5°C 37°F / 3°C 87% 30.06 in
(1018 mb)
W 8.1 mph
(W 13 kph)
- 10SM
21:55
Overcast
41°F / 5°C 37°F / 3°C 87% 30.04 in
(1017 mb)
W 10.4 mph
(W 17 kph)
- 10SM
21:35
Overcast
41°F / 5°C 37°F / 3°C 87% 30.04 in
(1017 mb)
W 8.1 mph
(W 13 kph)
- 10SM
21:15
Overcast
41°F / 5°C 37°F / 3°C 87% 30.04 in
(1017 mb)
W 10.4 mph
(W 17 kph)
- 10SM
20:55
Overcast
41°F / 5°C 37°F / 3°C 87% 30.01 in
(1016 mb)
WNW 8.1 mph
(WNW 13 kph)
- 10SM
20:35
Overcast
41°F / 5°C 37°F / 3°C 87% 30.01 in
(1016 mb)
NW 5.8 mph
(NW 9 kph)
- 10SM
20:15
Overcast
41°F / 5°C 37°F / 3°C 87% 30.01 in
(1016 mb)
WNW 8.1 mph
(WNW 13 kph)
- 10SM
19:55
Overcast
41°F / 5°C 37°F / 3°C 87% 30.01 in
(1016 mb)
WNW 6.9 mph
(WNW 11 kph)
- 10SM
19:35
Overcast
41°F / 5°C 37°F / 3°C 87% 29.98 in
(1015 mb)
NW 6.9 mph
(NW 11 kph)
- 10SM
19:15
Overcast
41°F / 5°C 37°F / 3°C 87% 29.98 in
(1015 mb)
NW 5.8 mph
(NW 9 kph)
- 10SM
18:55
Overcast
39°F / 4°C 37°F / 3°C 93% 29.98 in
(1015 mb)
NW 5.8 mph
(NW 9 kph)
- 10SM
18:35
Overcast
39°F / 4°C 37°F / 3°C 93% 29.98 in
(1015 mb)
NW 6.9 mph
(NW 11 kph)
- 10SM
18:15
Overcast
39°F / 4°C 37°F / 3°C 93% 29.95 in
(1014 mb)
NW 6.9 mph
(NW 11 kph)
- 7SM
17:55
Overcast
39°F / 4°C 37°F / 3°C 93% 29.95 in
(1014 mb)
NW 6.9 mph
(NW 11 kph)
0.01 in
(0.25 mm)
10SM
17:35
Overcast
39°F / 4°C 37°F / 3°C 93% 29.95 in
(1014 mb)
NW 11.5 mph
(NW 19 kph)
0.01 in
(0.25 mm)
10SM
17:15
Overcast
39°F / 4°C 37°F / 3°C 93% 29.95 in
(1014 mb)
NW 9.2 mph
(NW 15 kph)
0.01 in
(0.25 mm)
7SM
16:55
Overcast
39°F / 4°C 37°F / 3°C 93% 29.95 in
(1014 mb)
NW 6.9 mph
(NW 11 kph)
0.01 in
(0.25 mm)
5SM
16:35
Overcast
39°F / 4°C 37°F / 3°C 93% 29.95 in
(1014 mb)
NW 9.2 mph
(NW 15 kph)
0.01 in
(0.25 mm)
5SM
16:15
Overcast
41°F / 5°C 37°F / 3°C 87% 29.92 in
(1013 mb)
NW 11.5 mph
(NW 19 kph)
- 1 1/2SM
15:55
Overcast
41°F / 5°C 37°F / 3°C 87% 29.92 in
(1013 mb)
NW 9.2 mph
(NW 15 kph)
0.02 in
(0.51 mm)
1 1/4SM
15:35
Overcast
41°F / 5°C 37°F / 3°C 87% 29.92 in
(1013 mb)
NW 9.2 mph
(NW 15 kph)
0.01 in
(0.25 mm)
1 1/2SM
15:15
Overcast
41°F / 5°C 37°F / 3°C 87% 29.89 in
(1012 mb)
NW 12.7 mph
(NW 20 kph)
- 5SM
14:55
Overcast
43°F / 6°C 39°F / 4°C 87% 29.86 in
(1011 mb)
NW 13.8 mph
(NW 22 kph)
- 10SM
14:35
Overcast
45°F / 7°C 41°F / 5°C 87% 29.83 in
(1010 mb)
NW 9.2 mph
(NW 15 kph)
- 10SM
14:15
Overcast
45°F / 7°C 41°F / 5°C 87% 29.8 in
(1009 mb)
NNW 10.4 mph
(NNW 17 kph)
- 10SM
13:55
Overcast
45°F / 7°C 41°F / 5°C 87% 29.8 in
(1009 mb)
N 10.4 mph
(N 17 kph)
0.03 in
(0.76 mm)
10SM
13:35
Overcast
45°F / 7°C 41°F / 5°C 87% 29.83 in
(1010 mb)
N 6.9 mph
(N 11 kph)
0.02 in
(0.51 mm)
10SM
13:15
Overcast
45°F / 7°C 41°F / 5°C 87% 29.83 in
(1010 mb)
N 8.1 mph
(N 13 kph)
0.02 in
(0.51 mm)
7SM
12:55
Overcast
45°F / 7°C 41°F / 5°C 87% 29.86 in
(1011 mb)
N 8.1 mph
(N 13 kph)
0.08 in
(2.03 mm)
5SM
12:35
Overcast
45°F / 7°C 41°F / 5°C 87% 29.86 in
(1011 mb)
N 10.4 mph
(N 17 kph)
0.06 in
(1.52 mm)
7SM
12:15
Overcast
45°F / 7°C 41°F / 5°C 87% 29.86 in
(1011 mb)
N 8.1 mph
(N 13 kph)
0.05 in
(1.27 mm)
7SM
11:55
Overcast
45°F / 7°C 43°F / 6°C 93% 29.92 in
(1013 mb)
N 11.5 mph
(N 19 kph)
0.16 in
(4.06 mm)
2SM
11:35
Overcast
46°F / 8°C 43°F / 6°C 87% 29.92 in
(1013 mb)
N 8.1 mph
(N 13 kph)
0.07 in
(1.78 mm)
2 1/2SM
11:15
Overcast
46°F / 8°C 43°F / 6°C 87% 29.92 in
(1013 mb)
N 13.8 mph
(N 22 kph)
0.02 in
(0.51 mm)
3SM
10:55
Overcast
46°F / 8°C 43°F / 6°C 87% 29.98 in
(1015 mb)
N 5.8 mph
(N 9 kph)
0.09 in
(2.29 mm)
4SM
10:35
Overcast
46°F / 8°C 43°F / 6°C 87% 29.98 in
(1015 mb)
NNW 8.1 mph
(NNW 13 kph)
0.07 in
(1.78 mm)
1 1/2SM
10:15
Overcast
46°F / 8°C 45°F / 7°C 93% 29.98 in
(1015 mb)
N 9.2 mph
(N 15 kph)
0.01 in
(0.25 mm)
4SM
09:55
Overcast
46°F / 8°C 43°F / 6°C 87% 29.98 in
(1015 mb)
N 11.5 mph
(N 19 kph)
0.11 in
(2.79 mm)
4SM
09:35
Overcast
46°F / 8°C 43°F / 6°C 87% 29.98 in
(1015 mb)
NNE 10.4 mph
(NNE 17 kph)
0.07 in
(1.78 mm)
3SM
09:15
Overcast
46°F / 8°C 45°F / 7°C 93% 29.98 in
(1015 mb)
NNE 6.9 mph
(NNE 11 kph)
0.04 in
(1.02 mm)
3SM
08:55
Overcast
46°F / 8°C 45°F / 7°C 93% 29.98 in
(1015 mb)
N 6.9 mph
(N 11 kph)
0.16 in
(4.06 mm)
3SM
08:35
Overcast
46°F / 8°C 45°F / 7°C 93% 30.04 in
(1017 mb)
N 5.8 mph
(N 9 kph)
0.11 in
(2.79 mm)
2SM
08:15
Overcast
46°F / 8°C 45°F / 7°C 93% 30.04 in
(1017 mb)
NNW 6.9 mph
(NNW 11 kph)
0.04 in
(1.02 mm)
2 1/2SM
07:55
Overcast
46°F / 8°C 45°F / 7°C 93% 30.01 in
(1016 mb)
N 9.2 mph
(N 15 kph)
0.22 in
(5.59 mm)
2 1/2SM
07:35
Overcast
46°F / 8°C 45°F / 7°C 93% 30.01 in
(1016 mb)
NE 8.1 mph
(NE 13 kph)
0.15 in
(3.81 mm)
3SM
07:15
Overcast
46°F / 8°C 45°F / 7°C 93% 30.01 in
(1016 mb)
NE 8.1 mph
(NE 13 kph)
0.07 in
(1.78 mm)
2 1/2SM
06:55
Overcast
46°F / 8°C 45°F / 7°C 93% 30.01 in
(1016 mb)
N 6.9 mph
(N 11 kph)
0.15 in
(3.81 mm)
2 1/2SM
06:35
Overcast
46°F / 8°C 45°F / 7°C 93% 30.01 in
(1016 mb)
NE 6.9 mph
(NE 11 kph)
0.06 in
(1.52 mm)
4SM
06:15
Overcast
46°F / 8°C 45°F / 7°C 93% 30.01 in
(1016 mb)
NE 10.4 mph
(NE 17 kph)
0.03 in
(0.76 mm)
5SM
05:55
Overcast
46°F / 8°C 45°F / 7°C 93% 30.01 in
(1016 mb)
NE 11.5 mph
(NE 19 kph)
0.04 in
(1.02 mm)
4SM
05:35
Overcast
46°F / 8°C 45°F / 7°C 93% 30.04 in
(1017 mb)
NE 11.5 mph
(NE 19 kph)
0.02 in
(0.51 mm)
5SM
05:15
Overcast
46°F / 8°C 45°F / 7°C 93% 30.04 in
(1017 mb)
NE 10.4 mph
(NE 17 kph)
0.01 in
(0.25 mm)
5SM
04:55
Overcast
46°F / 8°C 45°F / 7°C 93% 30.04 in
(1017 mb)
NE 9.2 mph
(NE 15 kph)
0.07 in
(1.78 mm)
4SM
04:35
Overcast
48°F / 9°C 45°F / 7°C 87% 30.06 in
(1018 mb)
NE 10.4 mph
(NE 17 kph)
0.05 in
(1.27 mm)
4SM
04:15
Overcast
48°F / 9°C 45°F / 7°C 87% 30.06 in
(1018 mb)
NE 11.5 mph
(NE 19 kph)
0.03 in
(0.76 mm)
4SM
03:55
Overcast
48°F / 9°C 45°F / 7°C 87% 30.06 in
(1018 mb)
NE 9.2 mph
(NE 15 kph)
0.05 in
(1.27 mm)
5SM
03:35
Overcast
48°F / 9°C 45°F / 7°C 87% 30.06 in
(1018 mb)
NE 11.5 mph
(NE 19 kph)
0.03 in
(0.76 mm)
5SM
03:15
Overcast
50°F / 10°C 46°F / 8°C 88% 30.06 in
(1018 mb)
NE 5.8 mph
(NE 9 kph)
0.01 in
(0.25 mm)
4SM
02:55
Overcast
50°F / 10°C 46°F / 8°C 88% 30.06 in
(1018 mb)
NE 3.5 mph
(NE 6 kph)
0.05 in
(1.27 mm)
7SM
02:35
Overcast
50°F / 10°C 46°F / 8°C 88% 30.09 in
(1019 mb)
N 4.6 mph
(N 7 kph)
0.03 in
(0.76 mm)
5SM
02:15
Overcast
50°F / 10°C 46°F / 8°C 88% 30.09 in
(1019 mb)
Calm 0.01 in
(0.25 mm)
7SM
01:55
Overcast
50°F / 10°C 46°F / 8°C 88% 30.09 in
(1019 mb)
NE 3.5 mph
(NE 6 kph)
0.02 in
(0.51 mm)
10SM
01:35
Overcast
50°F / 10°C 46°F / 8°C 88% 30.09 in
(1019 mb)
NE 6.9 mph
(NE 11 kph)
0.02 in
(0.51 mm)
7SM
01:15
Overcast
50°F / 10°C 46°F / 8°C 88% 30.09 in
(1019 mb)
NE 4.6 mph
(NE 7 kph)
0.01 in
(0.25 mm)
10SM
00:55
Mostly Cloudy
50°F / 10°C 45°F / 7°C 82% 30.12 in
(1020 mb)
NE 3.5 mph
(NE 6 kph)
0.01 in
(0.25 mm)
10SM
00:35
Mostly Cloudy
50°F / 10°C 45°F / 7°C 82% 30.12 in
(1020 mb)
Calm 0.01 in
(0.25 mm)
10SM
00:15
Overcast
50°F / 10°C 45°F / 7°C 82% 30.12 in
(1020 mb)
ENE 4.6 mph
(ENE 7 kph)
- 10SM
Time Weather Temperature Dewpoint Humidity Pressure Winds Precip Visibility


Weather for websites

WeatherForYou.com, LLC is not responsible for any damages or problems caused by this service. Current weather conditions are obtained from the closest station including government and personal stations which may have varying degrees of accuracy. Weather forecasts are derived from the NOAA NDFD. Like all things, this site belongs to Jesus Christ... He just trusts me to maintain it. If you have any questions or comments email webmaster@weatherforyou.com

Copyright © 2014, WeatherForYou.com LLC. All rights reserved.